WXM80 ListenWXM80 Stop

You find our weather info also at:

UK Metoffice

WeatherCloud

Weather Underground

Northeastern Weather Network

AWEKAS

Citizen Weather Observer Program (CWOP)

HAMweather, WeatherForYou, PWS Weather


Weather Underground History page Text

Daily Summary for October 6, 2017 Units:  Both    English   Metric
« Previous Day
Next Day »
Daily Weekly Monthly Yearly Custom
  High: Low: Average:
Temperature: 80.5 °F /  26.9 °C 65.5 °F /  18.6 °C 71.4 °F /  21.9 °C
Dew Point: 67.5 °F /  19.7 °C 63.3 °F /  17.4 °C 65.1 °F /  18.4 °C
Humidity: 95 % 58 % 82 %
Wind Speed: 3.8 mph /  6.1 km/h - 0.6 mph /  1 km/h
Wind Gust: 8.1 mph /  13 km/h - -
Wind:- - SSW
Pressure: 30.07 in /  1018.2 hPa 30.00 in /  1015.8 hPa -
Precipitation: 0.00 in /  0 mm    
Historical Graphs
 
 
Tabular Data for October 6, 2017
Time Temperature Dew Point Pressure Wind Wind Speed Wind Gust Humidity Rainfall Rate (Hourly)
00:01 72.2 °F /  22.3 °C 65.7 °F /  18.7 °C 30.03 in /  1016.8 hPa WSW 2.2 mph /  3.5 km/h 3.5 mph /  5.6 km/h 80 % 0.00 in /  0 mm
00:06 71.9 °F /  22.2 °C 65.4 °F /  18.6 °C 30.03 in /  1016.8 hPa SW 1.6 mph /  2.6 km/h 8.1 mph /  13 km/h 80 % 0.00 in /  0 mm
00:12 71.5 °F /  21.9 °C 65.4 °F /  18.6 °C 30.03 in /  1016.8 hPa WSW 1.6 mph /  2.6 km/h 5.8 mph /  9.3 km/h 81 % 0.00 in /  0 mm
00:17 71.3 °F /  21.8 °C 65.2 °F /  18.4 °C 30.03 in /  1016.8 hPa SSW 2.9 mph /  4.7 km/h 6.0 mph /  9.7 km/h 81 % 0.00 in /  0 mm
00:22 71.1 °F /  21.7 °C 65.0 °F /  18.3 °C 30.02 in /  1016.5 hPa WSW 1.8 mph /  2.9 km/h 3.5 mph /  5.6 km/h 81 % 0.00 in /  0 mm
00:27 70.9 °F /  21.6 °C 64.8 °F /  18.2 °C 30.02 in /  1016.5 hPa SW 1.9 mph /  3.1 km/h 5.0 mph /  8 km/h 81 % 0.00 in /  0 mm
00:32 70.7 °F /  21.5 °C 64.6 °F /  18.1 °C 30.02 in /  1016.5 hPa WSW 1.9 mph /  3.1 km/h 3.5 mph /  5.6 km/h 81 % 0.00 in /  0 mm
00:37 70.5 °F /  21.4 °C 64.0 °F /  17.8 °C 30.02 in /  1016.5 hPa WSW 1.2 mph /  1.9 km/h 4.6 mph /  7.4 km/h 80 % 0.00 in /  0 mm
00:42 70.4 °F /  21.3 °C 63.9 °F /  17.7 °C 30.02 in /  1016.5 hPa SW 2.3 mph /  3.7 km/h 4.6 mph /  7.4 km/h 80 % 0.00 in /  0 mm
00:47 70.4 °F /  21.3 °C 64.3 °F /  17.9 °C 30.02 in /  1016.5 hPa SW 0.3 mph /  0.5 km/h 1.2 mph /  1.9 km/h 81 % 0.00 in /  0 mm
00:52 70.3 °F /  21.3 °C 64.2 °F /  17.9 °C 30.02 in /  1016.5 hPa SW 0.5 mph /  0.8 km/h 2.3 mph /  3.7 km/h 81 % 0.00 in /  0 mm
00:57 70.3 °F /  21.3 °C 64.2 °F /  17.9 °C 30.02 in /  1016.5 hPa SW 0.7 mph /  1.1 km/h 2.3 mph /  3.7 km/h 81 % 0.00 in /  0 mm
01:02 70.3 °F /  21.3 °C 64.2 °F /  17.9 °C 30.03 in /  1016.8 hPa SW 0.2 mph /  0.3 km/h 1.2 mph /  1.9 km/h 81 % 0.00 in /  0 mm
01:07 70.3 °F /  21.3 °C 64.5 °F /  18.1 °C 30.03 in /  1016.8 hPa WSW 1.3 mph /  2.1 km/h 4.0 mph /  6.4 km/h 82 % 0.00 in /  0 mm
01:12 70.3 °F /  21.3 °C 64.9 °F /  18.3 °C 30.03 in /  1016.8 hPa Calm   1.2 mph /  1.9 km/h 83 % 0.00 in /  0 mm
01:17 70.2 °F /  21.2 °C 64.8 °F /  18.2 °C 30.02 in /  1016.5 hPa WSW 0.3 mph /  0.5 km/h 1.2 mph /  1.9 km/h 83 % 0.00 in /  0 mm
01:22 70.2 °F /  21.2 °C 65.1 °F /  18.4 °C 30.02 in /  1016.5 hPa WSW 0.9 mph /  1.4 km/h 3.5 mph /  5.6 km/h 84 % 0.00 in /  0 mm
01:27 70.2 °F /  21.2 °C 65.1 °F /  18.4 °C 30.02 in /  1016.5 hPa WSW 1.6 mph /  2.6 km/h 3.5 mph /  5.6 km/h 84 % 0.00 in /  0 mm
01:37 70.1 °F /  21.2 °C 65.4 °F /  18.6 °C 30.03 in /  1016.8 hPa SW 0.1 mph /  0.2 km/h 2.3 mph /  3.7 km/h 85 % 0.00 in /  0 mm
01:42 70.1 °F /  21.2 °C 65.4 °F /  18.6 °C 30.03 in /  1016.8 hPa Calm   1.2 mph /  1.9 km/h 85 % 0.00 in /  0 mm
01:47 70.1 °F /  21.2 °C 65.7 °F /  18.7 °C 30.03 in /  1016.8 hPa WSW 1.4 mph /  2.3 km/h 3.5 mph /  5.6 km/h 86 % 0.00 in /  0 mm
01:52 70.1 °F /  21.2 °C 65.7 °F /  18.7 °C 30.03 in /  1016.8 hPa WSW 0.2 mph /  0.3 km/h 1.0 mph /  1.6 km/h 86 % 0.00 in /  0 mm
01:58 70.0 °F /  21.1 °C 65.6 °F /  18.7 °C 30.03 in /  1016.8 hPa WSW 0.6 mph /  1 km/h 3.0 mph /  4.8 km/h 86 % 0.00 in /  0 mm
02:03 70.0 °F /  21.1 °C 65.6 °F /  18.7 °C 30.04 in /  1017.2 hPa WSW 0.4 mph /  0.6 km/h 1.2 mph /  1.9 km/h 86 % 0.00 in /  0 mm
02:08 69.9 °F /  21.1 °C 65.5 °F /  18.6 °C 30.04 in /  1017.2 hPa Calm     86 % 0.00 in /  0 mm
02:13 69.9 °F /  21.1 °C 65.5 °F /  18.6 °C 30.03 in /  1016.8 hPa WSW 0.9 mph /  1.4 km/h 3.5 mph /  5.6 km/h 86 % 0.00 in /  0 mm
02:28 69.7 °F /  20.9 °C 66.0 °F /  18.9 °C 30.03 in /  1016.8 hPa SW 0.9 mph /  1.4 km/h 3.5 mph /  5.6 km/h 88 % 0.00 in /  0 mm
02:33 69.7 °F /  20.9 °C 66.0 °F /  18.9 °C 30.03 in /  1016.8 hPa Calm   1.2 mph /  1.9 km/h 88 % 0.00 in /  0 mm
02:38 69.7 °F /  20.9 °C 66.0 °F /  18.9 °C 30.03 in /  1016.8 hPa Calm     88 % 0.00 in /  0 mm
02:43 69.6 °F /  20.9 °C 65.9 °F /  18.8 °C 30.03 in /  1016.8 hPa Calm     88 % 0.00 in /  0 mm
02:53 69.4 °F /  20.8 °C 65.7 °F /  18.7 °C 30.02 in /  1016.5 hPa Calm     88 % 0.00 in /  0 mm
02:58 69.4 °F /  20.8 °C 65.7 °F /  18.7 °C 30.03 in /  1016.8 hPa Calm   1.0 mph /  1.6 km/h 88 % 0.00 in /  0 mm
03:03 69.3 °F /  20.7 °C 65.6 °F /  18.7 °C 30.02 in /  1016.5 hPa SW 0.1 mph /  0.2 km/h 1.0 mph /  1.6 km/h 88 % 0.00 in /  0 mm
03:08 69.2 °F /  20.7 °C 65.5 °F /  18.6 °C 30.02 in /  1016.5 hPa SSW 0.3 mph /  0.5 km/h 2.0 mph /  3.2 km/h 88 % 0.00 in /  0 mm
03:13 69.1 °F /  20.6 °C 65.7 °F /  18.7 °C 30.02 in /  1016.5 hPa Calm     89 % 0.00 in /  0 mm
03:18 69.0 °F /  20.6 °C 65.3 °F /  18.5 °C 30.02 in /  1016.5 hPa Calm     88 % 0.00 in /  0 mm
03:23 68.9 °F /  20.5 °C 65.5 °F /  18.6 °C 30.02 in /  1016.5 hPa SSW 0.3 mph /  0.5 km/h 1.2 mph /  1.9 km/h 89 % 0.00 in /  0 mm
03:28 68.8 °F /  20.4 °C 65.4 °F /  18.6 °C 30.02 in /  1016.5 hPa Calm   1.2 mph /  1.9 km/h 89 % 0.00 in /  0 mm
03:33 68.7 °F /  20.4 °C 65.3 °F /  18.5 °C 30.02 in /  1016.5 hPa Calm     89 % 0.00 in /  0 mm
03:38 68.6 °F /  20.3 °C 65.2 °F /  18.4 °C 30.02 in /  1016.5 hPa Calm   1.2 mph /  1.9 km/h 89 % 0.00 in /  0 mm
03:43 68.5 °F /  20.3 °C 65.4 °F /  18.6 °C 30.02 in /  1016.5 hPa SSW 0.2 mph /  0.3 km/h 2.3 mph /  3.7 km/h 90 % 0.00 in /  0 mm
03:48 68.4 °F /  20.2 °C 65.4 °F /  18.6 °C 30.02 in /  1016.5 hPa SSW 0.7 mph /  1.1 km/h 2.3 mph /  3.7 km/h 90 % 0.00 in /  0 mm
03:53 68.3 °F /  20.2 °C 65.6 °F /  18.7 °C 30.03 in /  1016.8 hPa SW 0.7 mph /  1.1 km/h 4.0 mph /  6.4 km/h 91 % 0.00 in /  0 mm
03:58 68.3 °F /  20.2 °C 65.6 °F /  18.7 °C 30.03 in /  1016.8 hPa WSW 2.5 mph /  4 km/h 3.5 mph /  5.6 km/h 91 % 0.00 in /  0 mm
04:03 68.3 °F /  20.2 °C 65.6 °F /  18.7 °C 30.03 in /  1016.8 hPa WSW 0.2 mph /  0.3 km/h 3.5 mph /  5.6 km/h 91 % 0.00 in /  0 mm
04:08 68.2 °F /  20.1 °C 65.5 °F /  18.6 °C 30.04 in /  1017.2 hPa WSW 0.5 mph /  0.8 km/h 2.3 mph /  3.7 km/h 91 % 0.00 in /  0 mm
04:13 68.2 °F /  20.1 °C 65.5 °F /  18.6 °C 30.04 in /  1017.2 hPa WSW 0.2 mph /  0.3 km/h 1.2 mph /  1.9 km/h 91 % 0.00 in /  0 mm
04:18 68.2 °F /  20.1 °C 65.5 °F /  18.6 °C 30.04 in /  1017.2 hPa Calm   1.2 mph /  1.9 km/h 91 % 0.00 in /  0 mm
04:23 68.1 °F /  20.1 °C 65.4 °F /  18.6 °C 30.04 in /  1017.2 hPa Calm     91 % 0.00 in /  0 mm
04:28 68.1 °F /  20.1 °C 65.4 °F /  18.6 °C 30.04 in /  1017.2 hPa Calm     91 % 0.00 in /  0 mm
04:34 68.1 °F /  20.1 °C 65.4 °F /  18.6 °C 30.04 in /  1017.2 hPa Calm   1.2 mph /  1.9 km/h 91 % 0.00 in /  0 mm
04:39 68.1 °F /  20.1 °C 65.7 °F /  18.7 °C 30.03 in /  1016.8 hPa Calm     92 % 0.00 in /  0 mm
04:44 68.1 °F /  20.1 °C 65.7 °F /  18.7 °C 30.04 in /  1017.2 hPa Calm     92 % 0.00 in /  0 mm
04:49 68.1 °F /  20.1 °C 65.7 °F /  18.7 °C 30.04 in /  1017.2 hPa Calm     92 % 0.00 in /  0 mm
04:54 68.0 °F /  20 °C 65.6 °F /  18.7 °C 30.04 in /  1017.2 hPa Calm     92 % 0.00 in /  0 mm
04:59 68.0 °F /  20 °C 65.6 °F /  18.7 °C 30.03 in /  1016.8 hPa Calm     92 % 0.00 in /  0 mm
05:04 67.9 °F /  19.9 °C 65.5 °F /  18.6 °C 30.03 in /  1016.8 hPa Calm     92 % 0.00 in /  0 mm
05:09 67.9 °F /  19.9 °C 65.2 °F /  18.4 °C 30.03 in /  1016.8 hPa Calm     91 % 0.00 in /  0 mm
05:14 67.8 °F /  19.9 °C 65.1 °F /  18.4 °C 30.04 in /  1017.2 hPa Calm     91 % 0.00 in /  0 mm
05:19 67.7 °F /  19.8 °C 65.3 °F /  18.5 °C 30.04 in /  1017.2 hPa WSW 0.1 mph /  0.2 km/h 1.2 mph /  1.9 km/h 92 % 0.00 in /  0 mm
05:24 67.7 °F /  19.8 °C 65.0 °F /  18.3 °C 30.04 in /  1017.2 hPa Calm   1.2 mph /  1.9 km/h 91 % 0.00 in /  0 mm
05:29 67.6 °F /  19.8 °C 65.2 °F /  18.4 °C 30.04 in /  1017.2 hPa WSW 0.4 mph /  0.6 km/h 1.2 mph /  1.9 km/h 92 % 0.00 in /  0 mm
05:39 67.4 °F /  19.7 °C 65.0 °F /  18.3 °C 30.04 in /  1017.2 hPa WNW 0.6 mph /  1 km/h 2.0 mph /  3.2 km/h 92 % 0.00 in /  0 mm
05:49 67.1 °F /  19.5 °C 64.7 °F /  18.2 °C 30.05 in /  1017.5 hPa Calm     92 % 0.00 in /  0 mm
05:54 67.0 °F /  19.4 °C 64.6 °F /  18.1 °C 30.05 in /  1017.5 hPa WNW 0.1 mph /  0.2 km/h 1.2 mph /  1.9 km/h 92 % 0.00 in /  0 mm
05:59 66.9 °F /  19.4 °C 64.5 °F /  18.1 °C 30.05 in /  1017.5 hPa Calm     92 % 0.00 in /  0 mm
06:04 66.8 °F /  19.3 °C 64.4 °F /  18 °C 30.05 in /  1017.5 hPa WNW 0.3 mph /  0.5 km/h 1.2 mph /  1.9 km/h 92 % 0.00 in /  0 mm
06:10 66.7 °F /  19.3 °C 64.6 °F /  18.1 °C 30.05 in /  1017.5 hPa WNW 0.1 mph /  0.2 km/h 1.2 mph /  1.9 km/h 93 % 0.00 in /  0 mm
06:15 66.6 °F /  19.2 °C 64.5 °F /  18.1 °C 30.06 in /  1017.8 hPa WNW 0.3 mph /  0.5 km/h 1.2 mph /  1.9 km/h 93 % 0.00 in /  0 mm
06:20 66.6 °F /  19.2 °C 64.5 °F /  18.1 °C 30.05 in /  1017.5 hPa Calm   1.2 mph /  1.9 km/h 93 % 0.00 in /  0 mm
06:25 66.5 °F /  19.2 °C 64.4 °F /  18 °C 30.05 in /  1017.5 hPa Calm     93 % 0.00 in /  0 mm
06:30 66.3 °F /  19.1 °C 64.2 °F /  17.9 °C 30.05 in /  1017.5 hPa Calm     93 % 0.00 in /  0 mm
06:35 66.3 °F /  19.1 °C 64.2 °F /  17.9 °C 30.05 in /  1017.5 hPa Calm     93 % 0.00 in /  0 mm
06:40 66.2 °F /  19 °C 64.1 °F /  17.8 °C 30.05 in /  1017.5 hPa Calm     93 % 0.00 in /  0 mm
06:45 66.1 °F /  18.9 °C 64.0 °F /  17.8 °C 30.06 in /  1017.8 hPa Calm     93 % 0.00 in /  0 mm
06:50 65.9 °F /  18.8 °C 63.8 °F /  17.7 °C 30.06 in /  1017.8 hPa Calm     93 % 0.00 in /  0 mm
06:55 65.9 °F /  18.8 °C 63.8 °F /  17.7 °C 30.06 in /  1017.8 hPa WNW 0.7 mph /  1.1 km/h 2.3 mph /  3.7 km/h 93 % 0.00 in /  0 mm
07:00 65.8 °F /  18.8 °C 63.7 °F /  17.6 °C 30.06 in /  1017.8 hPa WNW 0.3 mph /  0.5 km/h 1.2 mph /  1.9 km/h 93 % 0.00 in /  0 mm
07:05 65.7 °F /  18.7 °C 63.6 °F /  17.6 °C 30.06 in /  1017.8 hPa Calm     93 % 0.00 in /  0 mm
07:10 65.7 °F /  18.7 °C 63.6 °F /  17.6 °C 30.06 in /  1017.8 hPa Calm     93 % 0.00 in /  0 mm
07:15 65.6 °F /  18.7 °C 63.8 °F /  17.7 °C 30.07 in /  1018.2 hPa Calm   1.2 mph /  1.9 km/h 94 % 0.00 in /  0 mm
07:20 65.6 °F /  18.7 °C 63.8 °F /  17.7 °C 30.07 in /  1018.2 hPa Calm     94 % 0.00 in /  0 mm
07:25 65.6 °F /  18.7 °C 63.8 °F /  17.7 °C 30.07 in /  1018.2 hPa Calm     94 % 0.00 in /  0 mm
07:30 65.5 °F /  18.6 °C 63.7 °F /  17.6 °C 30.07 in /  1018.2 hPa Calm     94 % 0.00 in /  0 mm
07:35 65.5 °F /  18.6 °C 63.7 °F /  17.6 °C 30.07 in /  1018.2 hPa Calm     94 % 0.00 in /  0 mm
07:41 65.5 °F /  18.6 °C 63.7 °F /  17.6 °C 30.07 in /  1018.2 hPa Calm     94 % 0.00 in /  0 mm
07:46 65.5 °F /  18.6 °C 63.7 °F /  17.6 °C 30.07 in /  1018.2 hPa Calm     94 % 0.00 in /  0 mm
07:56 65.6 °F /  18.7 °C 64.1 °F /  17.8 °C 30.07 in /  1018.2 hPa Calm     95 % 0.00 in /  0 mm
08:01 65.6 °F /  18.7 °C 64.1 °F /  17.8 °C 30.07 in /  1018.2 hPa Calm     95 % 0.00 in /  0 mm
08:06 65.7 °F /  18.7 °C 64.2 °F /  17.9 °C 30.07 in /  1018.2 hPa Calm     95 % 0.00 in /  0 mm
08:11 65.8 °F /  18.8 °C 64.3 °F /  17.9 °C 30.07 in /  1018.2 hPa Calm     95 % 0.00 in /  0 mm
08:16 65.8 °F /  18.8 °C 64.3 °F /  17.9 °C 30.07 in /  1018.2 hPa Calm     95 % 0.00 in /  0 mm
08:21 65.9 °F /  18.8 °C 64.4 °F /  18 °C 30.07 in /  1018.2 hPa Calm     95 % 0.00 in /  0 mm
08:26 66.0 °F /  18.9 °C 64.5 °F /  18.1 °C 30.07 in /  1018.2 hPa Calm     95 % 0.00 in /  0 mm
08:31 66.0 °F /  18.9 °C 64.5 °F /  18.1 °C 30.07 in /  1018.2 hPa Calm   1.2 mph /  1.9 km/h 95 % 0.00 in /  0 mm
08:32 66.0 °F /  18.9 °C 64.5 °F /  18.1 °C 30.07 in /  1018.2 hPa Calm     95 % 0.00 in /  0 mm
08:37 66.0 °F /  18.9 °C 64.5 °F /  18.1 °C 30.07 in /  1018.2 hPa West 0.1 mph /  0.2 km/h 1.2 mph /  1.9 km/h 95 % 0.00 in /  0 mm
08:42 66.1 °F /  18.9 °C 64.6 °F /  18.1 °C 30.07 in /  1018.2 hPa Calm     95 % 0.00 in /  0 mm
08:47 66.3 °F /  19.1 °C 64.8 °F /  18.2 °C 30.07 in /  1018.2 hPa WNW 0.2 mph /  0.3 km/h 2.3 mph /  3.7 km/h 95 % 0.00 in /  0 mm
08:52 66.3 °F /  19.1 °C 64.8 °F /  18.2 °C 30.07 in /  1018.2 hPa West 0.6 mph /  1 km/h 2.3 mph /  3.7 km/h 95 % 0.00 in /  0 mm
08:57 66.4 °F /  19.1 °C 64.9 °F /  18.3 °C 30.07 in /  1018.2 hPa West 1.0 mph /  1.6 km/h 2.3 mph /  3.7 km/h 95 % 0.00 in /  0 mm
09:02 66.4 °F /  19.1 °C 64.6 °F /  18.1 °C 30.07 in /  1018.2 hPa WSW 0.8 mph /  1.3 km/h 2.3 mph /  3.7 km/h 94 % 0.00 in /  0 mm
09:07 66.4 °F /  19.1 °C 64.3 °F /  17.9 °C 30.07 in /  1018.2 hPa Calm     93 % 0.00 in /  0 mm
09:17 66.6 °F /  19.2 °C 64.2 °F /  17.9 °C 30.07 in /  1018.2 hPa Calm   1.2 mph /  1.9 km/h 92 % 0.00 in /  0 mm
09:23 66.6 °F /  19.2 °C 63.9 °F /  17.7 °C 30.07 in /  1018.2 hPa WSW 1.0 mph /  1.6 km/h 2.0 mph /  3.2 km/h 91 % 0.00 in /  0 mm
09:28 66.8 °F /  19.3 °C 64.1 °F /  17.8 °C 30.07 in /  1018.2 hPa WNW 0.1 mph /  0.2 km/h 1.2 mph /  1.9 km/h 91 % 0.00 in /  0 mm
09:33 66.9 °F /  19.4 °C 63.9 °F /  17.7 °C 30.07 in /  1018.2 hPa WNW 1.5 mph /  2.4 km/h 3.5 mph /  5.6 km/h 90 % 0.00 in /  0 mm
09:38 67.0 °F /  19.4 °C 63.6 °F /  17.6 °C 30.07 in /  1018.2 hPa NW 2.3 mph /  3.7 km/h 4.0 mph /  6.4 km/h 89 % 0.00 in /  0 mm
09:43 67.2 °F /  19.6 °C 63.5 °F /  17.5 °C 30.07 in /  1018.2 hPa West 1.1 mph /  1.8 km/h 3.5 mph /  5.6 km/h 88 % 0.00 in /  0 mm
09:48 67.4 °F /  19.7 °C 63.7 °F /  17.6 °C 30.07 in /  1018.2 hPa West 1.5 mph /  2.4 km/h 3.5 mph /  5.6 km/h 88 % 0.00 in /  0 mm
09:53 67.7 °F /  19.8 °C 64.3 °F /  17.9 °C 30.07 in /  1018.2 hPa North 1.3 mph /  2.1 km/h 3.5 mph /  5.6 km/h 89 % 0.00 in /  0 mm
09:58 67.9 °F /  19.9 °C 64.2 °F /  17.9 °C 30.07 in /  1018.2 hPa North 1.3 mph /  2.1 km/h 3.5 mph /  5.6 km/h 88 % 0.00 in /  0 mm
10:03 68.3 °F /  20.2 °C 64.9 °F /  18.3 °C 30.07 in /  1018.2 hPa WNW 1.2 mph /  1.9 km/h 3.5 mph /  5.6 km/h 89 % 0.00 in /  0 mm
10:08 68.5 °F /  20.3 °C 64.8 °F /  18.2 °C 30.07 in /  1018.2 hPa WNW 0.1 mph /  0.2 km/h 1.2 mph /  1.9 km/h 88 % 0.00 in /  0 mm
10:13 68.8 °F /  20.4 °C 64.8 °F /  18.2 °C 30.07 in /  1018.2 hPa NW 0.7 mph /  1.1 km/h 3.5 mph /  5.6 km/h 87 % 0.00 in /  0 mm
10:18 69.1 °F /  20.6 °C 64.7 °F /  18.2 °C 30.07 in /  1018.2 hPa North 3.3 mph /  5.3 km/h 6.9 mph /  11.1 km/h 86 % 0.00 in /  0 mm
10:23 69.5 °F /  20.8 °C 64.8 °F /  18.2 °C 30.07 in /  1018.2 hPa NW 1.7 mph /  2.7 km/h 4.6 mph /  7.4 km/h 85 % 0.00 in /  0 mm
10:28 69.9 °F /  21.1 °C 64.8 °F /  18.2 °C 30.07 in /  1018.2 hPa North 2.2 mph /  3.5 km/h 3.5 mph /  5.6 km/h 84 % 0.00 in /  0 mm
10:33 70.2 °F /  21.2 °C 64.4 °F /  18 °C 30.07 in /  1018.2 hPa NE 3.6 mph /  5.8 km/h 5.8 mph /  9.3 km/h 82 % 0.00 in /  0 mm
10:38 70.5 °F /  21.4 °C 64.4 °F /  18 °C 30.07 in /  1018.2 hPa North 2.8 mph /  4.5 km/h 5.8 mph /  9.3 km/h 81 % 0.00 in /  0 mm
10:43 70.8 °F /  21.6 °C 65.0 °F /  18.3 °C 30.07 in /  1018.2 hPa NW 1.7 mph /  2.7 km/h 3.5 mph /  5.6 km/h 82 % 0.00 in /  0 mm
10:48 71.0 °F /  21.7 °C 65.2 °F /  18.4 °C 30.07 in /  1018.2 hPa North 2.8 mph /  4.5 km/h 4.0 mph /  6.4 km/h 82 % 0.00 in /  0 mm
10:53 71.2 °F /  21.8 °C 65.1 °F /  18.4 °C 30.07 in /  1018.2 hPa North 1.8 mph /  2.9 km/h 4.0 mph /  6.4 km/h 81 % 0.00 in /  0 mm
10:58 71.3 °F /  21.8 °C 64.4 °F /  18 °C 30.07 in /  1018.2 hPa NW 1.1 mph /  1.8 km/h 2.3 mph /  3.7 km/h 79 % 0.00 in /  0 mm
11:03 71.5 °F /  21.9 °C 65.0 °F /  18.3 °C 30.06 in /  1017.8 hPa NNW 1.9 mph /  3.1 km/h 3.0 mph /  4.8 km/h 80 % 0.00 in /  0 mm
11:08 71.7 °F /  22.1 °C 65.6 °F /  18.7 °C 30.06 in /  1017.8 hPa NW 2.0 mph /  3.2 km/h 3.5 mph /  5.6 km/h 81 % 0.00 in /  0 mm
11:13 72.1 °F /  22.3 °C 64.9 °F /  18.3 °C 30.06 in /  1017.8 hPa WNW 1.9 mph /  3.1 km/h 3.5 mph /  5.6 km/h 78 % 0.00 in /  0 mm
11:18 72.7 °F /  22.6 °C 66.2 °F /  19 °C 30.06 in /  1017.8 hPa North 0.2 mph /  0.3 km/h 2.3 mph /  3.7 km/h 80 % 0.00 in /  0 mm
11:23 73.4 °F /  23 °C 66.5 °F /  19.2 °C 30.06 in /  1017.8 hPa NNE 1.5 mph /  2.4 km/h 3.0 mph /  4.8 km/h 79 % 0.00 in /  0 mm
11:34 74.3 °F /  23.5 °C 64.7 °F /  18.2 °C 30.06 in /  1017.8 hPa NNW 1.2 mph /  1.9 km/h 3.5 mph /  5.6 km/h 72 % 0.00 in /  0 mm
11:39 74.6 °F /  23.7 °C 66.1 °F /  18.9 °C 30.06 in /  1017.8 hPa North 1.3 mph /  2.1 km/h 3.5 mph /  5.6 km/h 75 % 0.00 in /  0 mm
11:44 75.0 °F /  23.9 °C 66.1 °F /  18.9 °C 30.06 in /  1017.8 hPa North 1.4 mph /  2.3 km/h 3.5 mph /  5.6 km/h 74 % 0.00 in /  0 mm
11:49 75.4 °F /  24.1 °C 66.5 °F /  19.2 °C 30.06 in /  1017.8 hPa North 1.2 mph /  1.9 km/h 3.5 mph /  5.6 km/h 74 % 0.00 in /  0 mm
11:54 75.8 °F /  24.3 °C 65.3 °F /  18.5 °C 30.06 in /  1017.8 hPa North 0.9 mph /  1.4 km/h 2.3 mph /  3.7 km/h 70 % 0.00 in /  0 mm
11:59 76.6 °F /  24.8 °C 65.7 °F /  18.7 °C 30.06 in /  1017.8 hPa NNW 1.8 mph /  2.9 km/h 3.5 mph /  5.6 km/h 69 % 0.00 in /  0 mm
12:04 77.1 °F /  25.1 °C 65.7 °F /  18.7 °C 30.06 in /  1017.8 hPa NW 0.6 mph /  1 km/h 2.3 mph /  3.7 km/h 68 % 0.00 in /  0 mm
12:14 77.9 °F /  25.5 °C 66.1 °F /  18.9 °C 30.06 in /  1017.8 hPa NNW 1.9 mph /  3.1 km/h 3.5 mph /  5.6 km/h 67 % 0.00 in /  0 mm
12:19 78.2 °F /  25.7 °C 65.5 °F /  18.6 °C 30.06 in /  1017.8 hPa Calm   1.2 mph /  1.9 km/h 65 % 0.00 in /  0 mm
12:24 78.4 °F /  25.8 °C 66.1 °F /  18.9 °C 30.06 in /  1017.8 hPa NNW 1.1 mph /  1.8 km/h 2.3 mph /  3.7 km/h 66 % 0.00 in /  0 mm
12:29 78.2 °F /  25.7 °C 66.8 °F /  19.3 °C 30.05 in /  1017.5 hPa North 0.2 mph /  0.3 km/h 2.3 mph /  3.7 km/h 68 % 0.00 in /  0 mm
12:34 78.3 °F /  25.7 °C 66.0 °F /  18.9 °C 30.05 in /  1017.5 hPa NNE 3.1 mph /  5 km/h 6.0 mph /  9.7 km/h 66 % 0.00 in /  0 mm
12:39 78.4 °F /  25.8 °C 65.2 °F /  18.4 °C 30.05 in /  1017.5 hPa WNW 1.9 mph /  3.1 km/h 4.6 mph /  7.4 km/h 64 % 0.00 in /  0 mm
12:44 78.5 °F /  25.8 °C 65.8 °F /  18.8 °C 30.05 in /  1017.5 hPa North 0.8 mph /  1.3 km/h 3.5 mph /  5.6 km/h 65 % 0.00 in /  0 mm
12:49 78.8 °F /  26 °C 66.0 °F /  18.9 °C 30.05 in /  1017.5 hPa NNW 1.0 mph /  1.6 km/h 4.6 mph /  7.4 km/h 65 % 0.00 in /  0 mm
12:54 79.1 °F /  26.2 °C 66.3 °F /  19.1 °C 30.05 in /  1017.5 hPa North 0.7 mph /  1.1 km/h 3.5 mph /  5.6 km/h 65 % 0.00 in /  0 mm
12:59 79.4 °F /  26.3 °C 65.7 °F /  18.7 °C 30.04 in /  1017.2 hPa North 3.8 mph /  6.1 km/h 5.8 mph /  9.3 km/h 63 % 0.00 in /  0 mm
13:06 79.8 °F /  26.6 °C 65.2 °F /  18.4 °C 30.04 in /  1017.2 hPa NNE 3.3 mph /  5.3 km/h 5.8 mph /  9.3 km/h 61 % 0.00 in /  0 mm
13:11 80.0 °F /  26.7 °C 65.3 °F /  18.5 °C 30.05 in /  1017.5 hPa NNE 2.7 mph /  4.3 km/h 5.8 mph /  9.3 km/h 61 % 0.00 in /  0 mm
13:16 80.2 °F /  26.8 °C 65.1 °F /  18.4 °C 30.04 in /  1017.2 hPa NNW 1.3 mph /  2.1 km/h 3.5 mph /  5.6 km/h 60 % 0.00 in /  0 mm
13:21 80.5 °F /  26.9 °C 65.8 °F /  18.8 °C 30.04 in /  1017.2 hPa NNW 1.3 mph /  2.1 km/h 5.8 mph /  9.3 km/h 61 % 0.00 in /  0 mm
13:26 80.4 °F /  26.9 °C 66.2 °F /  19 °C 30.03 in /  1016.8 hPa NNE 3.4 mph /  5.5 km/h 4.0 mph /  6.4 km/h 62 % 0.00 in /  0 mm
13:31 80.3 °F /  26.8 °C 67.5 °F /  19.7 °C 30.04 in /  1017.2 hPa NNE 1.5 mph /  2.4 km/h 4.0 mph /  6.4 km/h 65 % 0.00 in /  0 mm
13:36 80.2 °F /  26.8 °C 67.4 °F /  19.7 °C 30.03 in /  1016.8 hPa NE 0.8 mph /  1.3 km/h 2.3 mph /  3.7 km/h 65 % 0.00 in /  0 mm
13:41 80.2 °F /  26.8 °C 66.9 °F /  19.4 °C 30.03 in /  1016.8 hPa NNE 0.8 mph /  1.3 km/h 2.3 mph /  3.7 km/h 64 % 0.00 in /  0 mm
13:46 80.2 °F /  26.8 °C 66.9 °F /  19.4 °C 30.03 in /  1016.8 hPa NNE 1.4 mph /  2.3 km/h 1.4 mph /  2.3 km/h 64 % 0.00 in /  0 mm
13:51 80.2 °F /  26.8 °C 67.4 °F /  19.7 °C 30.02 in /  1016.5 hPa NNE 1.2 mph /  1.9 km/h 3.5 mph /  5.6 km/h 65 % 0.00 in /  0 mm
13:57 80.2 °F /  26.8 °C 66.5 °F /  19.2 °C 30.02 in /  1016.5 hPa North 2.2 mph /  3.5 km/h 3.0 mph /  4.8 km/h 63 % 0.00 in /  0 mm
14:02 80.3 °F /  26.8 °C 66.1 °F /  18.9 °C 30.02 in /  1016.5 hPa NNE 2.8 mph /  4.5 km/h 4.0 mph /  6.4 km/h 62 % 0.00 in /  0 mm
14:06 80.3 °F /  26.8 °C 66.1 °F /  18.9 °C 30.03 in /  1016.8 hPa NNE 0.6 mph /  1 km/h 3.5 mph /  5.6 km/h 62 % 0.00 in /  0 mm
14:11 80.2 °F /  26.8 °C 65.1 °F /  18.4 °C 30.02 in /  1016.5 hPa NNW 0.2 mph /  0.3 km/h 2.3 mph /  3.7 km/h 60 % 0.00 in /  0 mm
14:16 80.3 °F /  26.8 °C 66.6 °F /  19.2 °C 30.02 in /  1016.5 hPa NNW 0.1 mph /  0.2 km/h 1.0 mph /  1.6 km/h 63 % 0.00 in /  0 mm
14:21 80.3 °F /  26.8 °C 65.1 °F /  18.4 °C 30.02 in /  1016.5 hPa North 2.0 mph /  3.2 km/h 4.0 mph /  6.4 km/h 60 % 0.00 in /  0 mm
14:26 80.2 °F /  26.8 °C 66.0 °F /  18.9 °C 30.02 in /  1016.5 hPa Calm   4.0 mph /  6.4 km/h 62 % 0.00 in /  0 mm
14:31 80.2 °F /  26.8 °C 65.5 °F /  18.6 °C 30.02 in /  1016.5 hPa NNE 1.0 mph /  1.6 km/h 3.0 mph /  4.8 km/h 61 % 0.00 in /  0 mm
14:36 80.1 °F /  26.7 °C 65.0 °F /  18.3 °C 30.02 in /  1016.5 hPa North 1.0 mph /  1.6 km/h 4.0 mph /  6.4 km/h 60 % 0.00 in /  0 mm
14:41 80.0 °F /  26.7 °C 64.4 °F /  18 °C 30.02 in /  1016.5 hPa Calm   3.0 mph /  4.8 km/h 59 % 0.00 in /  0 mm
14:46 80.1 °F /  26.7 °C 65.0 °F /  18.3 °C 30.02 in /  1016.5 hPa NNW 1.0 mph /  1.6 km/h 3.0 mph /  4.8 km/h 60 % 0.00 in /  0 mm
14:51 80.2 °F /  26.8 °C 64.6 °F /  18.1 °C 30.02 in /  1016.5 hPa North 3.0 mph /  4.8 km/h 6.0 mph /  9.7 km/h 59 % 0.00 in /  0 mm
14:52 80.2 °F /  26.8 °C 64.6 °F /  18.1 °C 30.02 in /  1016.5 hPa North 2.4 mph /  3.9 km/h 3.5 mph /  5.6 km/h 59 % 0.00 in /  0 mm
14:57 80.3 °F /  26.8 °C 65.1 °F /  18.4 °C 30.02 in /  1016.5 hPa Calm   2.3 mph /  3.7 km/h 60 % 0.00 in /  0 mm
15:02 80.3 °F /  26.8 °C 65.1 °F /  18.4 °C 30.01 in /  1016.1 hPa North 0.1 mph /  0.2 km/h 1.2 mph /  1.9 km/h 60 % 0.00 in /  0 mm
15:07 80.2 °F /  26.8 °C 65.1 °F /  18.4 °C 30.02 in /  1016.5 hPa NE 0.4 mph /  0.6 km/h 1.2 mph /  1.9 km/h 60 % 0.00 in /  0 mm
15:12 80.2 °F /  26.8 °C 65.1 °F /  18.4 °C 30.02 in /  1016.5 hPa NNE 0.4 mph /  0.6 km/h 1.2 mph /  1.9 km/h 60 % 0.00 in /  0 mm
15:17 80.1 °F /  26.7 °C 66.4 °F /  19.1 °C 30.02 in /  1016.5 hPa NNE 0.1 mph /  0.2 km/h 1.0 mph /  1.6 km/h 63 % 0.00 in /  0 mm
15:22 79.7 °F /  26.5 °C 64.6 °F /  18.1 °C 30.02 in /  1016.5 hPa NNE 0.4 mph /  0.6 km/h 2.3 mph /  3.7 km/h 60 % 0.00 in /  0 mm
15:27 79.5 °F /  26.4 °C 64.9 °F /  18.3 °C 30.01 in /  1016.1 hPa Calm     61 % 0.00 in /  0 mm
15:32 79.3 °F /  26.3 °C 64.2 °F /  17.9 °C 30.01 in /  1016.1 hPa Calm   1.2 mph /  1.9 km/h 60 % 0.00 in /  0 mm
15:42 79.4 °F /  26.3 °C 63.3 °F /  17.4 °C 30.00 in /  1015.8 hPa Calm     58 % 0.00 in /  0 mm
15:47 79.3 °F /  26.3 °C 64.7 °F /  18.2 °C 30.00 in /  1015.8 hPa West 0.3 mph /  0.5 km/h 1.2 mph /  1.9 km/h 61 % 0.00 in /  0 mm
15:52 79.1 °F /  26.2 °C 65.0 °F /  18.3 °C 30.00 in /  1015.8 hPa Calm   1.2 mph /  1.9 km/h 62 % 0.00 in /  0 mm
15:57 78.9 °F /  26.1 °C 63.8 °F /  17.7 °C 30.00 in /  1015.8 hPa Calm   1.2 mph /  1.9 km/h 60 % 0.00 in /  0 mm
16:02 78.8 °F /  26 °C 64.7 °F /  18.2 °C 30.01 in /  1016.1 hPa Calm   1.0 mph /  1.6 km/h 62 % 0.00 in /  0 mm
16:07 78.5 °F /  25.8 °C 63.5 °F /  17.5 °C 30.00 in /  1015.8 hPa North 0.3 mph /  0.5 km/h 1.2 mph /  1.9 km/h 60 % 0.00 in /  0 mm
16:12 78.3 °F /  25.7 °C 63.7 °F /  17.6 °C 30.00 in /  1015.8 hPa Calm     61 % 0.00 in /  0 mm
16:17 78.2 °F /  25.7 °C 63.6 °F /  17.6 °C 30.00 in /  1015.8 hPa North 0.2 mph /  0.3 km/h 1.0 mph /  1.6 km/h 61 % 0.00 in /  0 mm
16:22 78.0 °F /  25.6 °C 63.5 °F /  17.5 °C 30.00 in /  1015.8 hPa North 0.3 mph /  0.5 km/h 1.2 mph /  1.9 km/h 61 % 0.00 in /  0 mm
16:27 77.8 °F /  25.4 °C 64.2 °F /  17.9 °C 30.00 in /  1015.8 hPa Calm     63 % 0.00 in /  0 mm
16:32 77.6 °F /  25.3 °C 63.5 °F /  17.5 °C 30.00 in /  1015.8 hPa Calm     62 % 0.00 in /  0 mm
16:37 77.5 °F /  25.3 °C 63.5 °F /  17.5 °C 30.00 in /  1015.8 hPa Calm     62 % 0.00 in /  0 mm
16:42 77.3 °F /  25.2 °C 63.7 °F /  17.6 °C 30.00 in /  1015.8 hPa Calm   1.0 mph /  1.6 km/h 63 % 0.00 in /  0 mm
16:52 77.1 °F /  25.1 °C 64.4 °F /  18 °C 30.00 in /  1015.8 hPa Calm     65 % 0.00 in /  0 mm
16:57 76.9 °F /  24.9 °C 64.2 °F /  17.9 °C 30.00 in /  1015.8 hPa NE 0.1 mph /  0.2 km/h 2.3 mph /  3.7 km/h 65 % 0.00 in /  0 mm
17:02 76.8 °F /  24.9 °C 64.6 °F /  18.1 °C 30.01 in /  1016.1 hPa Calm   1.2 mph /  1.9 km/h 66 % 0.00 in /  0 mm
17:07 76.7 °F /  24.8 °C 64.9 °F /  18.3 °C 30.01 in /  1016.1 hPa NE 0.2 mph /  0.3 km/h 1.0 mph /  1.6 km/h 67 % 0.00 in /  0 mm
17:12 76.6 °F /  24.8 °C 65.2 °F /  18.4 °C 30.01 in /  1016.1 hPa East 0.5 mph /  0.8 km/h 2.3 mph /  3.7 km/h 68 % 0.00 in /  0 mm
17:17 76.4 °F /  24.7 °C 65.9 °F /  18.8 °C 30.00 in /  1015.8 hPa Calm     70 % 0.00 in /  0 mm
17:22 76.1 °F /  24.5 °C 65.6 °F /  18.7 °C 30.00 in /  1015.8 hPa SE 1.1 mph /  1.8 km/h 4.6 mph /  7.4 km/h 70 % 0.00 in /  0 mm
17:28 75.8 °F /  24.3 °C 65.7 °F /  18.7 °C 30.00 in /  1015.8 hPa SE 0.6 mph /  1 km/h 4.0 mph /  6.4 km/h 71 % 0.00 in /  0 mm
17:33 75.5 °F /  24.2 °C 65.8 °F /  18.8 °C 30.00 in /  1015.8 hPa SE 1.1 mph /  1.8 km/h 5.8 mph /  9.3 km/h 72 % 0.00 in /  0 mm
17:38 75.1 °F /  23.9 °C 65.9 °F /  18.8 °C 30.00 in /  1015.8 hPa SSE 1.0 mph /  1.6 km/h 4.0 mph /  6.4 km/h 73 % 0.00 in /  0 mm
17:43 74.8 °F /  23.8 °C 66.0 °F /  18.9 °C 30.00 in /  1015.8 hPa SE 0.7 mph /  1.1 km/h 2.3 mph /  3.7 km/h 74 % 0.00 in /  0 mm
17:48 74.6 °F /  23.7 °C 66.1 °F /  18.9 °C 30.00 in /  1015.8 hPa Calm   1.2 mph /  1.9 km/h 75 % 0.00 in /  0 mm
17:53 74.4 °F /  23.6 °C 66.0 °F /  18.9 °C 30.00 in /  1015.8 hPa Calm   1.2 mph /  1.9 km/h 75 % 0.00 in /  0 mm
17:58 74.2 °F /  23.4 °C 65.8 °F /  18.8 °C 30.01 in /  1016.1 hPa Calm   1.2 mph /  1.9 km/h 75 % 0.00 in /  0 mm
18:03 74.0 °F /  23.3 °C 66.0 °F /  18.9 °C 30.00 in /  1015.8 hPa SE 0.1 mph /  0.2 km/h 1.0 mph /  1.6 km/h 76 % 0.00 in /  0 mm
18:08 73.8 °F /  23.2 °C 65.8 °F /  18.8 °C 30.01 in /  1016.1 hPa Calm   2.3 mph /  3.7 km/h 76 % 0.00 in /  0 mm
18:13 73.6 °F /  23.1 °C 65.9 °F /  18.8 °C 30.01 in /  1016.1 hPa SE 0.2 mph /  0.3 km/h 1.2 mph /  1.9 km/h 77 % 0.00 in /  0 mm
18:18 73.3 °F /  22.9 °C 65.7 °F /  18.7 °C 30.00 in /  1015.8 hPa SE 0.1 mph /  0.2 km/h 1.2 mph /  1.9 km/h 77 % 0.00 in /  0 mm
18:23 73.1 °F /  22.8 °C 65.8 °F /  18.8 °C 30.00 in /  1015.8 hPa SE 1.5 mph /  2.4 km/h 5.0 mph /  8 km/h 78 % 0.00 in /  0 mm
18:28 72.7 °F /  22.6 °C 65.8 °F /  18.8 °C 30.01 in /  1016.1 hPa SE 1.9 mph /  3.1 km/h 3.5 mph /  5.6 km/h 79 % 0.00 in /  0 mm
18:33 72.5 °F /  22.5 °C 65.6 °F /  18.7 °C 30.01 in /  1016.1 hPa Calm     79 % 0.00 in /  0 mm
18:38 72.4 °F /  22.4 °C 65.5 °F /  18.6 °C 30.01 in /  1016.1 hPa Calm     79 % 0.00 in /  0 mm
18:43 72.2 °F /  22.3 °C 65.7 °F /  18.7 °C 30.01 in /  1016.1 hPa Calm     80 % 0.00 in /  0 mm
18:48 72.0 °F /  22.2 °C 65.8 °F /  18.8 °C 30.01 in /  1016.1 hPa Calm     81 % 0.00 in /  0 mm
18:53 71.8 °F /  22.1 °C 65.7 °F /  18.7 °C 30.01 in /  1016.1 hPa SE 0.6 mph /  1 km/h 4.0 mph /  6.4 km/h 81 % 0.00 in /  0 mm
18:58 71.5 °F /  21.9 °C 65.7 °F /  18.7 °C 30.01 in /  1016.1 hPa SE 0.1 mph /  0.2 km/h 1.0 mph /  1.6 km/h 82 % 0.00 in /  0 mm
19:04 71.2 °F /  21.8 °C 65.8 °F /  18.8 °C 30.02 in /  1016.5 hPa SE 0.1 mph /  0.2 km/h 2.3 mph /  3.7 km/h 83 % 0.00 in /  0 mm
19:09 71.1 °F /  21.7 °C 65.7 °F /  18.7 °C 30.02 in /  1016.5 hPa Calm     83 % 0.00 in /  0 mm
19:14 71.0 °F /  21.7 °C 65.6 °F /  18.7 °C 30.02 in /  1016.5 hPa Calm     83 % 0.00 in /  0 mm
19:19 70.7 °F /  21.5 °C 65.6 °F /  18.7 °C 30.02 in /  1016.5 hPa Calm   2.3 mph /  3.7 km/h 84 % 0.00 in /  0 mm
19:24 70.5 °F /  21.4 °C 65.8 °F /  18.8 °C 30.02 in /  1016.5 hPa Calm     85 % 0.00 in /  0 mm
19:29 70.4 °F /  21.3 °C 65.7 °F /  18.7 °C 30.02 in /  1016.5 hPa Calm     85 % 0.00 in /  0 mm
19:34 70.3 °F /  21.3 °C 65.6 °F /  18.7 °C 30.03 in /  1016.8 hPa Calm   1.2 mph /  1.9 km/h 85 % 0.00 in /  0 mm
19:39 70.2 °F /  21.2 °C 65.8 °F /  18.8 °C 30.03 in /  1016.8 hPa SE 0.1 mph /  0.2 km/h 1.2 mph /  1.9 km/h 86 % 0.00 in /  0 mm
19:44 70.1 °F /  21.2 °C 65.7 °F /  18.7 °C 30.03 in /  1016.8 hPa SE 0.1 mph /  0.2 km/h 1.2 mph /  1.9 km/h 86 % 0.00 in /  0 mm
19:54 69.9 °F /  21.1 °C 65.5 °F /  18.6 °C 30.03 in /  1016.8 hPa Calm     86 % 0.00 in /  0 mm
19:59 69.8 °F /  21 °C 65.8 °F /  18.8 °C 30.03 in /  1016.8 hPa Calm   3.5 mph /  5.6 km/h 87 % 0.00 in /  0 mm
20:04 69.7 °F /  20.9 °C 65.7 °F /  18.7 °C 30.03 in /  1016.8 hPa Calm     87 % 0.00 in /  0 mm
20:09 69.6 °F /  20.9 °C 65.6 °F /  18.7 °C 30.02 in /  1016.5 hPa Calm     87 % 0.00 in /  0 mm
20:14 69.5 °F /  20.8 °C 65.5 °F /  18.6 °C 30.03 in /  1016.8 hPa Calm     87 % 0.00 in /  0 mm
20:24 69.4 °F /  20.8 °C 65.4 °F /  18.6 °C 30.03 in /  1016.8 hPa SE 0.1 mph /  0.2 km/h 1.0 mph /  1.6 km/h 87 % 0.00 in /  0 mm
20:29 69.3 °F /  20.7 °C 65.3 °F /  18.5 °C 30.03 in /  1016.8 hPa Calm     87 % 0.00 in /  0 mm
20:34 69.2 °F /  20.7 °C 65.5 °F /  18.6 °C 30.03 in /  1016.8 hPa Calm     88 % 0.00 in /  0 mm
20:39 69.2 °F /  20.7 °C 65.5 °F /  18.6 °C 30.03 in /  1016.8 hPa Calm     88 % 0.00 in /  0 mm
20:44 69.1 °F /  20.6 °C 65.4 °F /  18.6 °C 30.03 in /  1016.8 hPa Calm   1.2 mph /  1.9 km/h 88 % 0.00 in /  0 mm
20:49 69.0 °F /  20.6 °C 65.3 °F /  18.5 °C 30.03 in /  1016.8 hPa Calm   1.2 mph /  1.9 km/h 88 % 0.00 in /  0 mm
20:55 69.0 °F /  20.6 °C 65.3 °F /  18.5 °C 30.03 in /  1016.8 hPa SSE 0.6 mph /  1 km/h 1.2 mph /  1.9 km/h 88 % 0.00 in /  0 mm
21:00 68.9 °F /  20.5 °C 65.2 °F /  18.4 °C 30.03 in /  1016.8 hPa Calm     88 % 0.00 in /  0 mm
21:05 68.9 °F /  20.5 °C 65.5 °F /  18.6 °C 30.03 in /  1016.8 hPa Calm   1.2 mph /  1.9 km/h 89 % 0.00 in /  0 mm
21:10 68.8 °F /  20.4 °C 65.4 °F /  18.6 °C 30.04 in /  1017.2 hPa Calm     89 % 0.00 in /  0 mm
21:20 68.8 °F /  20.4 °C 65.4 °F /  18.6 °C 30.04 in /  1017.2 hPa Calm     89 % 0.00 in /  0 mm
21:25 68.7 °F /  20.4 °C 65.0 °F /  18.3 °C 30.04 in /  1017.2 hPa Calm     88 % 0.00 in /  0 mm
21:30 68.6 °F /  20.3 °C 65.2 °F /  18.4 °C 30.04 in /  1017.2 hPa Calm   1.2 mph /  1.9 km/h 89 % 0.00 in /  0 mm
21:35 68.6 °F /  20.3 °C 65.5 °F /  18.6 °C 30.04 in /  1017.2 hPa Calm     90 % 0.00 in /  0 mm
21:40 68.6 °F /  20.3 °C 65.5 °F /  18.6 °C 30.04 in /  1017.2 hPa Calm     90 % 0.00 in /  0 mm
21:45 68.5 °F /  20.3 °C 65.4 °F /  18.6 °C 30.04 in /  1017.2 hPa Calm     90 % 0.00 in /  0 mm
21:50 68.4 °F /  20.2 °C 65.4 °F /  18.6 °C 30.04 in /  1017.2 hPa Calm     90 % 0.00 in /  0 mm
21:55 68.4 °F /  20.2 °C 65.4 °F /  18.6 °C 30.04 in /  1017.2 hPa Calm     90 % 0.00 in /  0 mm
22:00 68.3 °F /  20.2 °C 65.3 °F /  18.5 °C 30.04 in /  1017.2 hPa Calm     90 % 0.00 in /  0 mm
22:05 68.3 °F /  20.2 °C 65.3 °F /  18.5 °C 30.05 in /  1017.5 hPa Calm     90 % 0.00 in /  0 mm
22:10 68.2 °F /  20.1 °C 65.2 °F /  18.4 °C 30.05 in /  1017.5 hPa Calm     90 % 0.00 in /  0 mm
22:15 68.2 °F /  20.1 °C 65.2 °F /  18.4 °C 30.05 in /  1017.5 hPa SE 0.1 mph /  0.2 km/h 1.2 mph /  1.9 km/h 90 % 0.00 in /  0 mm
22:20 68.1 °F /  20.1 °C 65.4 °F /  18.6 °C 30.05 in /  1017.5 hPa SSE 0.7 mph /  1.1 km/h 2.3 mph /  3.7 km/h 91 % 0.00 in /  0 mm
22:25 68.1 °F /  20.1 °C 65.4 °F /  18.6 °C 30.05 in /  1017.5 hPa Calm     91 % 0.00 in /  0 mm
22:30 68.0 °F /  20 °C 65.3 °F /  18.5 °C 30.05 in /  1017.5 hPa Calm     91 % 0.00 in /  0 mm
22:35 68.0 °F /  20 °C 65.3 °F /  18.5 °C 30.04 in /  1017.2 hPa Calm     91 % 0.00 in /  0 mm
22:40 67.9 °F /  19.9 °C 65.2 °F /  18.4 °C 30.05 in /  1017.5 hPa Calm     91 % 0.00 in /  0 mm
22:46 67.9 °F /  19.9 °C 65.2 °F /  18.4 °C 30.05 in /  1017.5 hPa Calm     91 % 0.00 in /  0 mm
22:51 67.8 °F /  19.9 °C 65.1 °F /  18.4 °C 30.05 in /  1017.5 hPa Calm     91 % 0.00 in /  0 mm
22:56 67.8 °F /  19.9 °C 65.1 °F /  18.4 °C 30.05 in /  1017.5 hPa Calm     91 % 0.00 in /  0 mm
23:01 67.7 °F /  19.8 °C 65.0 °F /  18.3 °C 30.05 in /  1017.5 hPa Calm     91 % 0.00 in /  0 mm
23:06 67.6 °F /  19.8 °C 64.9 °F /  18.3 °C 30.05 in /  1017.5 hPa Calm     91 % 0.00 in /  0 mm
23:16 67.6 °F /  19.8 °C 64.9 °F /  18.3 °C 30.05 in /  1017.5 hPa Calm     91 % 0.00 in /  0 mm
23:21 67.5 °F /  19.7 °C 64.8 °F /  18.2 °C 30.05 in /  1017.5 hPa Calm     91 % 0.00 in /  0 mm
23:25 67.5 °F /  19.7 °C 64.8 °F /  18.2 °C 30.05 in /  1017.5 hPa Calm     91 % 0.00 in /  0 mm
23:30 67.4 °F /  19.7 °C 64.7 °F /  18.2 °C 30.05 in /  1017.5 hPa Calm     91 % 0.00 in /  0 mm
23:35 67.4 °F /  19.7 °C 65.0 °F /  18.3 °C 30.05 in /  1017.5 hPa Calm     92 % 0.00 in /  0 mm
23:36 67.4 °F /  19.7 °C 64.7 °F /  18.2 °C 30.05 in /  1017.5 hPa Calm   1.0 mph /  1.6 km/h 91 % 0.00 in /  0 mm
23:41 67.4 °F /  19.7 °C 65.0 °F /  18.3 °C 30.05 in /  1017.5 hPa Calm   1.0 mph /  1.6 km/h 92 % 0.00 in /  0 mm
23:46 67.3 °F /  19.6 °C 64.9 °F /  18.3 °C 30.05 in /  1017.5 hPa Calm     92 % 0.00 in /  0 mm
23:56 67.2 °F /  19.6 °C 64.8 °F /  18.2 °C 30.05 in /  1017.5 hPa Calm     92 % 0.00 in /  0 mm
Crab Meadow Weather
Compliments of Weather Underground - 3 mb

Script developed by  Jim McMurry - jmcmurry@mwt.net Adapted for the template by  Wim van der Kuil - Leuven-Template.eu

Weather Terms: Degree Day - Gauges the amount of heating or cooling needed for a building using 65 degrees as a baseline. To compute degree days, the average temperature for a day is taken and referenced to 65. An average temperature of 50 yields 15 heating degree days, while an average temperature of 75 would yield 10 cooling degree days.